985 visiteurs
Prévisions de votre ville :
Vigilance : 1 département Mise à jour le 07/12/2019 à 10:55 - Voir la carte

Paris Roissy CDG (95380) le 07/12/2019 à 10:30 Choisir station

9°C 93 % SO Vit. moyenne 15 kmh/h

Relevés météo quotidiens pour la station de :

UTC
S: Synop
M: Metar
Loc T°C
(°C)
Td
(°C)
HR
(%)
Vis
(km)
Néb
(octa)
Vent
(km/h)
Pression
(mb)
Précipitations
(mm)
Temps
              MOY
10 min
DIR RAF 1h MESURE VAR SUR 3h    
S 00 h 02h 23.3 19.0 77 20 - - - 2 1018.6 -0.4/3h 0.0/6h - 0.0/3h -
S 01 h 03h 23.3 17.3 69 20 - 7 11 1018.2 -0.8/3h 0.0/1h -
S 02 h 04h 22.4 16.7 70 20 - 4 9 1017.8 -1.3/3h 0.0/1h -
S 03 h 05h 21.2 16.8 76 20 - 4 6 1017.4 -1.4/3h 0.0/3h -
S 04 h 06h 21.7 15.8 69 20 - 2 4 1017.1 -1.2/3h 0.0/1h -
S 05 h 07h 22.1 14.5 62 20 - 2 4 1017.1 -0.7/3h 0.0/1h -
S 06 h 08h 27.3 14.7 46 19 - - - 2 1016.3 -0.4/3h 0.0/12h - 0.0/3h - 0.0/24h -
S 07 h 09h 32.0 16.3 39 19 - - - 6 1015.8 -0.2/3h 0.0/1h -
S 08 h 10h 35.1 16.9 34 20 - 13 26 1015.3 -0.4/3h 0.0/1h -
S 09 h 11h 36.9 17.0 31 19 - 9 20 1014.8 -0.5/3h 0.0/3h -
S 10 h 12h 37.9 16.8 29 20 - 20 43 1014.8 -0.4/3h 0.0/1h -
S 11 h 13h 39.2 11.3 19 20 - 24 46 1014.4 -0.5/3h 0.0/1h -
S 12 h 14h 40.4 12.3 19 19 - 19 44 1014.0 -0.5/3h 0.0/6h - 0.0/3h -
S 13 h 15h 40.9 11.0 17 20 - 20 39 1013.7 -0.9/3h 0.0/1h -
S 14 h 16h 40.9 8.1 14 20 - 11 19 1013.3 -1.0/3h 0.0/1h -
S 15 h 17h 40.7 6.9 13 20 - 11 22 1013.2 -0.8/3h 0.0/3h -
S 16 h 18h 39.7 7.2 14 20 - 20 41 1013.2 -0.6/3h 0.0/1h -
S 17 h 19h 39.2 6.8 14 20 - 19 41 1013.1 -0.3/3h 0.0/1h -
S 18 h 20h 37.4 8.2 17 20 - 17 33 1013.4 -0.1/3h 0.0/12h - 0.0/3h -
S 19 h 21h 34.5 10.4 23 20 - 6 17 1013.8 +0.1/3h 0.0/1h -
S 20 h 22h 31.5 10.2 27 20 - 13 20 1014.5 +0.6/3h 0.0/1h -
S 21 h 23h 31.2 14.4 36 20 - 15 28 1014.9 +0.9/3h 0.0/3h -
S 22 h 00h 29.8 14.7 40 20 - 15 33 1015.0 +0.8/3h 0.0/1h -
S 23 h 01h 29.5 13.7 38 20 - 15 26 1014.8 +0.1/3h 0.0/1h -
evolution des temperatures
cumul des precipitations
vent moyen et rafales
pression atmospherique

Un tiret (-) signifie que les données ne sont pas disponibles.

Passez la souris sur les pictos temps pour avoir plus de précisions. Passez les flèches sur l'icône de la direction du vent pour voir la direction précise en degrés.

Les données de l'heure en cours sont disponibles à partir de H+15 minutes.


S signifie station Synop, plus complète qu'une station Metar (M). Il y a +1h de différence entre l'heure UTC et l'heure légale en hiver et +2h en été.

Td est la mesure du point de rosée.

HR est l'humidité relative/p>

Vis est la visibilité

Néb est la nébulosité du ciel (couverture nuageuse) exprimée en octas (de 0/8 à 8/8).

Vent moy 10 min donne le vent moyen sur les 10 minutes qui précèdent le relevé.

Vent raf 1h donne la rafale maximale mesurée dans l'heure qui précède le relevé.


Les données les plus anciennes remontent à avril 2014.

Les données présentées sur cette page proviennent des stations météo officielles. Les relevés sont effectués aux normes en vigueur (anémomètre à 10m de haut, thermomètre sous abri normalisé à 2m du sol...)

Météo 60 décline toute responsabilité en cas d'absence de données, d'erreurs, de mauvaise utilisation ou interprétation et n'est pas habilité à fournir des certificats intempéries.